sat.trackr.live / text

‹ back to catalog

JILIN-1 GAOFEN 3H

NORAD 46460 · 2020-065G

PAYLOAD ACTIVE UNKNOWN

§ Identity

Operator
Country
PRC
Launch date
2020-09-15
Launch site
SEAL
Launch vehicle
Mass (kg)
RCS (m²)

External: N2YO · Heavens-Above · Gunter

§ Orbital elements

Epoch: 2026-09-20T04:21:13.017024Z

Period
90.55 min
Inclination
97.2000°
Eccentricity
0.0001896
Mean motion
15.90205150 rev/d
Perigee alt
300.4 km
Apogee alt
303.0 km
Semi-major
6,679.8 km
B*
7.1259e-4
RAAN
320.1998°
Arg perigee
254.2266°
Mean anomaly
105.8799°
Rev number
33,485

§ Raw data

JILIN-1 GAOFEN 3H1 46460U 20065G   26263.18140066  .00213429  18549-4  71259-3 0  99972 46460  97.2000 320.1998 0001896 254.2266 105.8799 15.90205150334853

JSON: /api/v1/satellites/46460 · /tle

For live sub-satellite position, see the globe view (requires WebGL).

§ Visibility from observer

Set your observer location to see the next 7 days of passes ≥ 10°. The values pass through the URL so the page stays shareable.

No JS? Fill the form by hand. The geolocation button needs JavaScript.

§ Radio — SatNOGS DB

ModeDescriptionDownlinkUplink
BPSK Jillin Mysterious Pip 1.616 GHz

1 transmitter · refreshed weekly from db.satnogs.org